This is the latest recevied weather packets stored in our database for station/object HS5BOG-13. If no packets are shown the sender has not sent any weather packets the latest 10 day(s).
| Time | Temp. | Humidity | Pressure | Rain* | Wind** | Luminosity | Snow |
|---|---|---|---|---|---|---|---|
| 1777711488 | 32.78° C | 42% | 987.3 hPa | - | - | - | - |
| 1777710882 | 32.78° C | 40% | 987.4 hPa | - | - | - | - |
| 1777710277 | 32.78° C | 42% | 987.6 hPa | - | - | - | - |
| 1777709671 | 32.78° C | 39% | 987.8 hPa | - | - | - | - |
| 1777709065 | 32.78° C | 41% | 987.9 hPa | - | - | - | - |
| 1777708460 | 32.78° C | 41% | 988.1 hPa | - | - | - | - |
| 1777707854 | 32.78° C | 42% | 988.2 hPa | - | - | - | - |
| 1777707249 | 32.78° C | 43% | 988.4 hPa | - | - | - | - |
| 1777706643 | 32.78° C | 43% | 988.6 hPa | - | - | - | - |
| 1777706037 | 32.22° C | 43% | 988.7 hPa | - | - | - | - |
| 1777705432 | 32.22° C | 45% | 989.1 hPa | - | - | - | - |
| 1777704826 | 32.22° C | 46% | 989.3 hPa | - | - | - | - |
| 1777704221 | 32.22° C | 43% | 989.5 hPa | - | - | - | - |
| 1777703615 | 32.22° C | 45% | 989.7 hPa | - | - | - | - |
| 1777703009 | 31.67° C | 47% | 990 hPa | - | - | - | - |
| 1777702404 | 31.67° C | 48% | 990.3 hPa | - | - | - | - |
| 1777701798 | 31.11° C | 49% | 990.5 hPa | - | - | - | - |
| 1777701193 | 31.67° C | 49% | 990.6 hPa | - | - | - | - |
| 1777700587 | 31.67° C | 49% | 990.9 hPa | - | - | - | - |
| 1777699982 | 31.11° C | 51% | 991 hPa | - | - | - | - |
| 1777699376 | 31.11° C | 51% | 991.2 hPa | - | - | - | - |
| 1777698770 | 31.11° C | 52% | 991.3 hPa | - | - | - | - |
| 1777698165 | 31.11° C | 51% | 991.7 hPa | - | - | - | - |
| 1777697559 | 30.56° C | 55% | 991.8 hPa | - | - | - | - |
| 1777696954 | 30.56° C | 55% | 991.9 hPa | - | - | - | - |
* Rain since midnight (hover to see other rain measurements)
** Current wind speed in m/s (hover to see current wind gust speed)